Back to catalog

DMSP 5D-2 F13 DEB

AliveSSO
NORAD 40400·DEBRIS·🇺🇸 United States

Launched Mar 24, 1995 from Vandenberg Space Force Base

Loading…

Next Passes (next 24 hours)

TLE

FreshSource: Space-Track

Epoch: Sep 14, 2026, 13:00 UTC

1 40400U 95015M   26257.54169488  .00001875  00000-0  51327-3 0  9997
2 40400  98.4640 286.8431 0131832  98.2014 263.4152 14.43333707604025

Track DMSP 5D-2 F13 DEB in real time with AllMySat

Download on the App Store